This is the latest recevied weather packets stored in our database for station/object DN9EM-1. If no packets are shown the sender has not sent any weather packets the latest 10 day(s).
| Time | Temp. | Humidity | Pressure | Rain* | Wind** | Luminosity | Snow |
|---|---|---|---|---|---|---|---|
| 1777514457 | 3.33° C | 75% | 1033.8 hPa | 0 mm | - | - | - |
| 1777513855 | 3.33° C | 74% | 1033.8 hPa | 0 mm | - | - | - |
| 1777513247 | 3.33° C | 74% | 1033.9 hPa | 0 mm | - | - | - |
| 1777512644 | 3.33° C | 73% | 1033.8 hPa | 0 mm | - | - | - |
| 1777512036 | 3.33° C | 73% | 1033.7 hPa | 0 mm | - | - | - |
| 1777511434 | 3.89° C | 72% | 1033.8 hPa | 0 mm | - | - | - |
| 1777510831 | 3.89° C | 71% | 1033.8 hPa | 0 mm | - | - | - |
| 1777510223 | 3.89° C | 71% | 1033.7 hPa | 0 mm | - | - | - |
| 1777509621 | 3.89° C | 70% | 1033.7 hPa | 0 mm | - | - | - |
| 1777509072 | 4.44° C | 69% | 1033.8 hPa | 0 mm | - | - | - |
| 1777508470 | 4.44° C | 68% | 1033.7 hPa | 0 mm | - | - | - |
| 1777507867 | 5° C | 66% | 1033.7 hPa | 0 mm | - | - | - |
| 1777507259 | 5° C | 66% | 1033.8 hPa | 0 mm | - | - | - |
| 1777506657 | 5° C | 66% | 1033.8 hPa | 0 mm | - | - | - |
| 1777506048 | 5.56° C | 65% | 1033.8 hPa | 0 mm | - | - | - |
| 1777505446 | 5° C | 66% | 1033.8 hPa | 0 mm | - | - | - |
| 1777504843 | 5° C | 66% | 1033.8 hPa | 0 mm | - | - | - |
| 1777504235 | 5.56° C | 65% | 1033.7 hPa | 0 mm | - | - | - |
| 1777503633 | 5.56° C | 65% | 1033.7 hPa | 0 mm | - | - | - |
| 1777503024 | 5.56° C | 65% | 1033.7 hPa | 0 mm | - | - | - |
| 1777502422 | 5.56° C | 65% | 1033.5 hPa | 0 mm | - | - | - |
| 1777501819 | 5.56° C | 63% | 1033.6 hPa | 0 mm | - | - | - |
| 1777501271 | 6.67° C | 62% | 1033.5 hPa | 0 mm | - | - | - |
| 1777500668 | 7.22° C | 60% | 1033.3 hPa | 0 mm | - | - | - |
| 1777500060 | 7.78° C | 56% | 1033.4 hPa | 0 mm | - | - | - |
* Rain latest hour (hover to see other rain measurements)
** Current wind speed in m/s (hover to see current wind gust speed)